User: anonymous   Login
Location: Unspecified
(0.0000°N, 0.0000°E)
Time: 19:29:30
(UTC+00:00)
Language:

STARLINK-30966 - Orbit

View from above orbital plane
View from above orbital plane
View from above satellite
View from above satellite

Ground track
Ground track

The orbit is defined by the following mean orbital elements,

1 58454U          26145.50653185 +.00000000 +00000-0 +69438-4 0 00004
2 58454  43.0036 327.6966 0001757 278.6274  81.4379 15.27579003    00
Epoch (UTC): 25 May 2026 12:09:24
Eccentricity: 0.0001757
inclination: 43.0036°
perigee height: 482 km
apogee height: 484 km
right ascension of ascending node: 327.6966°
argument of perigee: 278.6274°
revolutions per day: 15.27579003
mean anomaly at epoch: 81.4379°

The dashed part of the orbit path shows where the satellite is in the earth's shadow,  

DLR